Regional Weather Roundup
Issued by NWS

Home | Current Version | Previous Version | Graphics & Text | Print | Product List | Glossary On
Versions: 1 2 3 4 5 6 7 8 9 10 11 12 13 14 15 16 17 18 19 20 21 22 23 24 25 26 27 28 29 30 31 32 33 34 35 36 37 38 39 40 41 42 43 44 45 46 47 48 49 50
000
ASUS43 KLMK 230502
RWRKY
KENTUCKY REGIONAL WEATHER ROUNDUP
NATIONAL WEATHER SERVICE LOUISVILLE KY
100 AM EDT WED APR 23 2014

NOTE "FAIR" INDICATES FEW OR NO CLOUDS BELOW 12,000 FEET
WITH NO SIGNIFICANT WEATHER AND/OR OBSTRUCTIONS TO VISIBILITY.

KYZ001>023-026-027-061>063-070>075-230600-
WESTERN AND SOUTH CENTRAL KENTUCKY

CITY           SKY/WX    TMP DP  RH WIND       PRES   REMARKS
PADUCAH        CLEAR     51  43  74 CALM      29.98R
HENDERSON      CLEAR     50  37  62 CALM      29.97S
OWENSBORO      CLEAR     56  36  47 N6        29.98S
HOPKINSVILLE   CLEAR     55  38  51 NW2       29.97R
BOWLING GREEN  CLEAR     53  39  59 CALM      29.96S
GLASGOW        NOT AVBL
$$

KYZ024-025-028>034-038-045-046-053-230600-
NORTH CENTRAL KENTUCKY

CITY           SKY/WX    TMP DP  RH WIND       PRES   REMARKS
LOUISVILLE/SDF CLEAR     53  31  42 N9        29.99R
LOUISVILLE/LOU CLEAR     54  30  40 N6        29.99R
FORT KNOX      CLEAR     53  33  48 N9        29.97R
$$

KYZ035>037-039>044-047>052-055>060-089>105-230600-
NORTHEAST KENTUCKY

CITY           SKY/WX    TMP DP  RH WIND       PRES   REMARKS
LEXINGTON      CLEAR     47  32  56 N8        29.97R
COVINGTON      CLEAR     46  31  55 N5        29.98S
FRANKFORT      CLEAR     50  30  46 NE9       29.97R
$$

KYZ054-064>069-076>088-106>120-230600-
SOUTHEAST KENTUCKY

CITY           SKY/WX    TMP DP  RH WIND       PRES   REMARKS
JACKSON        CLEAR     52  31  44 MISG      29.93R
LONDON         CLEAR     54  32  43 N7        29.93R
SOMERSET       NOT AVBL
MIDDLESBORO    NOT AVBL
MONTICELLO     CLEAR     54  33  44 N3        29.97R
$$




USA.gov is the U.S. government's official web portal to all federal, state and local government web resources and services.